| time (UTC) | temp F | wind direction | speed MPH | gust MPH | rain 1hr in | rain 24hr in | rain mn in | humidity % | barometer mb |
| 20260502202945 | 55 | 265 | 3.0 | 7.0 | 0.00 | 0.00 | 0.00 | 43 | 1017.2 |
| 20260502202431 | 55 | 234 | 2.0 | 7.0 | 0.00 | 0.00 | 0.00 | 47 | 1017.2 |
| 20260502201920 | 54 | 26 | 2.0 | 5.0 | 0.00 | 0.00 | 0.00 | 45 | 1017.4 |
| 20260502201452 | 54 | 311 | 2.0 | 9.0 | 0.00 | 0.00 | 0.00 | 44 | 1017.4 |
| 20260502200918 | 55 | 298 | 4.0 | 9.0 | 0.00 | 0.00 | 0.00 | 43 | 1017.4 |
| 20260502200423 | 54 | 348 | 2.0 | 9.0 | 0.00 | 0.00 | 0.00 | 44 | 1017.6 |
| 20260502195916 | 54 | 292 | 4.0 | 9.0 | 0.00 | 0.00 | 0.00 | 45 | 1017.7 |
| 20260502195452 | 54 | 277 | 3.0 | 7.0 | 0.00 | 0.00 | 0.00 | 46 | 1017.6 |
| 20260502194918 | 53 | 249 | 2.0 | 6.0 | 0.00 | 0.00 | 0.00 | 46 | 1017.7 |
| 20260502194427 | 53 | 306 | 3.0 | 8.0 | 0.00 | 0.00 | 0.00 | 45 | 1017.8 |
| 20260502193915 | 53 | 351 | 3.0 | 8.0 | 0.00 | 0.00 | 0.00 | 45 | 1017.9 |
| 20260502193431 | 53 | 309 | 4.0 | 8.0 | 0.00 | 0.00 | 0.00 | 44 | 1018.0 |
| 20260502192943 | 54 | 317 | 2.0 | 7.0 | 0.00 | 0.00 | 0.00 | 43 | 1018.0 |
| 20260502192430 | 54 | 326 | 2.0 | 5.0 | 0.00 | 0.00 | 0.00 | 42 | 1018.0 |
| 20260502191917 | 55 | 311 | 2.0 | 5.0 | 0.00 | 0.00 | 0.00 | 44 | 1017.9 |
| 20260502191428 | 54 | 297 | 2.0 | 4.0 | 0.00 | 0.00 | 0.00 | 45 | 1018.0 |
| 20260502190940 | 54 | 9 | 2.0 | 5.0 | 0.00 | 0.00 | 0.00 | 44 | 1018.2 |
| 20260502190424 | 53 | 53 | 3.0 | 5.0 | 0.00 | 0.00 | 0.00 | 44 | 1018.3 |
| 20260502185932 | 53 | 9 | 1.0 | 4.0 | 0.00 | 0.00 | 0.00 | 45 | 1018.4 |
| 20260502185420 | 53 | 329 | 2.0 | 5.0 | 0.00 | 0.00 | 0.00 | 46 | 1018.4 |
| 20260502184927 | 53 | 291 | 3.0 | 5.0 | 0.00 | 0.00 | 0.00 | 45 | 1018.4 |
| 20260502184437 | 53 | 55 | 3.0 | 6.0 | 0.00 | 0.00 | 0.00 | 47 | 1018.5 |
| 20260502183945 | 52 | 340 | 3.0 | 6.0 | 0.00 | 0.00 | 0.00 | 46 | 1018.5 |
| 20260502183430 | 52 | 313 | 3.0 | 6.0 | 0.00 | 0.00 | 0.00 | 45 | 1018.5 |
| 20260502182432 | 53 | 309 | 3.0 | 8.0 | 0.00 | 0.00 | 0.00 | 44 | 1018.6 |
| 20260502181919 | 52 | 315 | 3.0 | 6.0 | 0.00 | 0.00 | 0.00 | 46 | 1018.7 |
| 20260502181427 | 52 | 324 | 2.0 | 5.0 | 0.00 | 0.00 | 0.00 | 46 | 1018.8 |
| 20260502180916 | 52 | 338 | 1.0 | 8.0 | 0.00 | 0.00 | 0.00 | 46 | 1018.9 |
| 20260502180423 | 52 | 304 | 3.0 | 8.0 | 0.00 | 0.00 | 0.00 | 44 | 1018.9 |
| 20260502170430 | 52 | 351 | 3.0 | 6.0 | 0.00 | 0.00 | 0.00 | 43 | 1019.3 |
| 20260502163921 | 52 | 251 | 1.0 | 5.0 | 0.00 | 0.00 | 0.00 | 44 | 1019.4 |
| 20260502163456 | 52 | 346 | 1.0 | 5.0 | 0.00 | 0.00 | 0.00 | 45 | 1019.5 |
| 20260502162951 | 52 | 286 | 3.0 | 8.0 | 0.00 | 0.00 | 0.00 | 45 | 1019.5 |
| 20260502162416 | 52 | 351 | 4.0 | 8.0 | 0.00 | 0.00 | 0.00 | 46 | 1019.7 |
| 20260502161924 | 51 | 348 | 2.0 | 5.0 | 0.00 | 0.00 | 0.00 | 49 | 1019.6 |
| 20260502161414 | 51 | 317 | 1.0 | 7.0 | 0.00 | 0.00 | 0.00 | 47 | 1019.7 |
| 20260502160919 | 50 | 30 | 3.0 | 7.0 | 0.00 | 0.00 | 0.00 | 48 | 1019.8 |
| 20260502160428 | 51 | 277 | 1.0 | 5.0 | 0.00 | 0.00 | 0.00 | 46 | 1019.8 |
| 20260502151915 | 48 | 223 | 2.0 | 4.0 | 0.00 | 0.00 | 0.00 | 49 | 1019.9 |
| 20260502151426 | 49 | 265 | 2.0 | 4.0 | 0.00 | 0.00 | 0.00 | 48 | 1019.9 |
| 20260502150915 | 48 | 294 | 1.0 | 3.0 | 0.00 | 0.00 | 0.00 | 51 | 1019.9 |
| 20260502150422 | 48 | 266 | 2.0 | 3.0 | 0.00 | 0.00 | 0.00 | 49 | 1019.9 |
| 20260502130444 | 37 | 63 | 1.0 | 2.0 | 0.00 | 0.00 | 0.00 | 93 | 1019.8 |
| 20260502123437 | 34 | 64 | 0.0 | 0.0 | 0.00 | 0.00 | 0.00 | 93 | 1019.8 |
| 20260502122922 | 34 | 64 | 0.0 | 0.0 | 0.00 | 0.00 | 0.00 | 93 | 1019.8 |
| 20260502122430 | 34 | 63 | 0.0 | 0.0 | 0.00 | 0.00 | 0.00 | 93 | 1019.6 |
| 20260502121916 | 33 | 64 | 0.0 | 0.0 | 0.00 | 0.00 | 0.00 | 93 | 1019.6 |
| 20260502121426 | 33 | 64 | 0.0 | 0.0 | 0.00 | 0.00 | 0.00 | 93 | 1019.6 |
| 20260502120931 | 32 | 64 | 0.0 | 0.0 | 0.00 | 0.00 | 0.00 | 93 | 1019.6 |
| 20260502120419 | 32 | 64 | 0.0 | 0.0 | 0.00 | 0.00 | 0.00 | 92 | 1019.6 |
| 20260502115929 | 31 | 64 | 0.0 | 0.0 | 0.00 | 0.00 | 0.00 | 92 | 1019.5 |
| 20260502115419 | 31 | 64 | 0.0 | 0.0 | 0.00 | 0.00 | 0.00 | 92 | 1019.5 |
| 20260502114926 | 31 | 64 | 0.0 | 0.0 | 0.00 | 0.00 | 0.00 | 92 | 1019.4 |
| 20260502114439 | 31 | 64 | 0.0 | 0.0 | 0.00 | 0.00 | 0.00 | 91 | 1019.3 |
| 20260502113948 | 30 | 64 | 0.0 | 0.0 | 0.00 | 0.00 | 0.00 | 91 | 1019.3 |
| 20260502113437 | 30 | 64 | 0.0 | 0.0 | 0.00 | 0.00 | 0.00 | 91 | 1019.3 |
| 20260502112922 | 30 | 64 | 0.0 | 0.0 | 0.00 | 0.00 | 0.00 | 91 | 1019.2 |
| 20260502112430 | 30 | 64 | 0.0 | 0.0 | 0.00 | 0.00 | 0.00 | 91 | 1019.2 |
| 20260502111939 | 30 | 64 | 0.0 | 0.0 | 0.00 | 0.00 | 0.00 | 91 | 1019.3 |
| 20260502111424 | 30 | 64 | 0.0 | 0.0 | 0.00 | 0.00 | 0.00 | 91 | 1019.3 |
| 20260502110932 | 30 | 64 | 0.0 | 0.0 | 0.00 | 0.00 | 0.00 | 91 | 1019.2 |
| 20260502110416 | 30 | 64 | 0.0 | 0.0 | 0.00 | 0.00 | 0.00 | 91 | 1019.1 |
| 20260502105923 | 30 | 64 | 0.0 | 0.0 | 0.00 | 0.00 | 0.00 | 91 | 1019.1 |
| 20260502105436 | 30 | 64 | 0.0 | 0.0 | 0.00 | 0.00 | 0.00 | 91 | 1019.2 |
| 20260502104920 | 30 | 64 | 0.0 | 0.0 | 0.00 | 0.00 | 0.00 | 90 | 1019.1 |
| 20260502104429 | 30 | 64 | 0.0 | 0.0 | 0.00 | 0.00 | 0.00 | 90 | 1019.0 |
| 20260502103936 | 30 | 64 | 0.0 | 0.0 | 0.00 | 0.00 | 0.00 | 90 | 1019.1 |
| 20260502103421 | 30 | 64 | 0.0 | 0.0 | 0.00 | 0.00 | 0.00 | 90 | 1019.0 |
| 20260502102926 | 30 | 64 | 0.0 | 0.0 | 0.00 | 0.00 | 0.00 | 90 | 1018.9 |
| 20260502102437 | 30 | 64 | 0.0 | 0.0 | 0.00 | 0.00 | 0.00 | 90 | 1019.0 |
| 20260502101921 | 30 | 64 | 0.0 | 0.0 | 0.00 | 0.00 | 0.00 | 90 | 1019.0 |
| 20260502101456 | 30 | 64 | 0.0 | 0.0 | 0.00 | 0.00 | 0.00 | 90 | 1019.0 |
| 20260502100921 | 30 | 64 | 0.0 | 0.0 | 0.00 | 0.00 | 0.00 | 90 | 1019.1 |
| 20260502100427 | 30 | 64 | 0.0 | 0.0 | 0.00 | 0.00 | 0.00 | 90 | 1019.0 |
| 20260502091427 | 30 | 64 | 0.0 | 0.0 | 0.00 | 0.01 | 0.00 | 90 | 1018.9 |
| 20260502090935 | 30 | 64 | 0.0 | 0.0 | 0.00 | 0.01 | 0.00 | 89 | 1018.9 |
| 20260502090420 | 30 | 64 | 0.0 | 0.0 | 0.00 | 0.01 | 0.00 | 89 | 1018.9 |
| 20260502071437 | 32 | 64 | 0.0 | 0.0 | 0.00 | 0.01 | 0.00 | 88 | 1019.1 |
| 20260502070953 | 32 | 64 | 0.0 | 0.0 | 0.00 | 0.01 | 0.00 | 88 | 1019.1 |
| 20260502070420 | 32 | 64 | 0.0 | 0.0 | 0.00 | 0.01 | 0.00 | 87 | 1019.1 |
| 20260502065926 | 32 | 64 | 0.0 | 0.0 | 0.00 | 0.01 | 0.00 | 87 | 1019.1 |
| 20260502065414 | 32 | 64 | 0.0 | 0.0 | 0.00 | 0.01 | 0.00 | 88 | 1019.3 |
| 20260502064923 | 32 | 64 | 0.0 | 0.0 | 0.00 | 0.01 | 0.00 | 88 | 1019.3 |
| 20260502064430 | 32 | 64 | 0.0 | 0.0 | 0.00 | 0.01 | 0.00 | 87 | 1019.2 |
| 20260502063917 | 32 | 64 | 0.0 | 0.0 | 0.00 | 0.01 | 0.00 | 87 | 1019.2 |
| 20260502063425 | 32 | 64 | 0.0 | 0.0 | 0.00 | 0.01 | 0.00 | 87 | 1019.2 |
| 20260502062916 | 32 | 64 | 0.0 | 0.0 | 0.00 | 0.01 | 0.00 | 86 | 1019.3 |
| 20260502062452 | 32 | 64 | 0.0 | 0.0 | 0.00 | 0.01 | 0.00 | 86 | 1019.4 |
| 20260502061916 | 32 | 64 | 0.0 | 0.0 | 0.00 | 0.01 | 0.00 | 86 | 1019.4 |
| 20260502060933 | 33 | 64 | 0.0 | 0.0 | 0.00 | 0.01 | 0.00 | 86 | 1019.5 |
| 20260502060442 | 33 | 64 | 0.0 | 0.0 | 0.00 | 0.01 | 0.00 | 86 | 1019.4 |
| 20260502055928 | 33 | 64 | 0.0 | 0.0 | 0.00 | 0.01 | 0.00 | 86 | 1019.5 |
| 20260502055416 | 33 | 64 | 0.0 | 0.0 | 0.00 | 0.01 | 0.01 | 85 | 1019.4 |
| 20260502054922 | 33 | 64 | 0.0 | 0.0 | 0.00 | 0.01 | 0.01 | 85 | 1019.6 |
| 20260502054436 | 33 | 64 | 0.0 | 0.0 | 0.00 | 0.01 | 0.01 | 85 | 1019.5 |
| 20260502053945 | 33 | 64 | 0.0 | 0.0 | 0.00 | 0.01 | 0.01 | 85 | 1019.5 |
| 20260502053429 | 33 | 64 | 0.0 | 0.0 | 0.00 | 0.01 | 0.01 | 84 | 1019.5 |
| 20260502052919 | 34 | 64 | 0.0 | 0.0 | 0.00 | 0.01 | 0.01 | 84 | 1019.5 |
| 20260502052426 | 34 | 64 | 0.0 | 0.0 | 0.00 | 0.01 | 0.01 | 84 | 1019.5 |
| 20260502051930 | 34 | 64 | 0.0 | 0.0 | 0.00 | 0.01 | 0.01 | 84 | 1019.4 |
| 20260502051419 | 34 | 64 | 0.0 | 0.0 | 0.00 | 0.01 | 0.01 | 84 | 1019.5 |
| 20260502050926 | 34 | 64 | 0.0 | 0.0 | 0.00 | 0.01 | 0.01 | 84 | 1019.5 |
| 20260502050435 | 34 | 64 | 0.0 | 0.0 | 0.00 | 0.01 | 0.01 | 84 | 1019.5 |
| 20260502045918 | 34 | 64 | 0.0 | 0.0 | 0.00 | 0.01 | 0.01 | 83 | 1019.5 |
| 20260502045428 | 34 | 64 | 0.0 | 0.0 | 0.00 | 0.01 | 0.01 | 83 | 1019.6 |
| 20260502044939 | 34 | 64 | 0.0 | 0.0 | 0.00 | 0.01 | 0.01 | 83 | 1019.6 |
| 20260502044430 | 34 | 64 | 0.0 | 0.0 | 0.00 | 0.01 | 0.01 | 83 | 1019.6 |
| 20260502043916 | 35 | 64 | 0.0 | 0.0 | 0.00 | 0.01 | 0.01 | 82 | 1019.6 |
| 20260502043423 | 35 | 64 | 0.0 | 0.0 | 0.00 | 0.01 | 0.01 | 82 | 1019.6 |
| 20260502042933 | 35 | 64 | 0.0 | 0.0 | 0.00 | 0.01 | 0.01 | 81 | 1019.5 |
| 20260502042423 | 35 | 64 | 0.0 | 0.0 | 0.00 | 0.01 | 0.01 | 81 | 1019.5 |
| 20260502041934 | 35 | 64 | 0.0 | 0.0 | 0.00 | 0.01 | 0.01 | 81 | 1019.5 |
| 20260502041425 | 35 | 64 | 0.0 | 0.0 | 0.00 | 0.01 | 0.01 | 80 | 1019.5 |
| 20260502040932 | 35 | 64 | 0.0 | 0.0 | 0.00 | 0.01 | 0.01 | 80 | 1019.4 |
| 20260502040419 | 36 | 64 | 0.0 | 0.0 | 0.00 | 0.01 | 0.01 | 80 | 1019.5 |
| 20260502035930 | 36 | 64 | 0.0 | 0.0 | 0.00 | 0.01 | 0.01 | 79 | 1019.4 |
| 20260502035431 | 36 | 64 | 0.0 | 0.0 | 0.00 | 0.02 | 0.01 | 78 | 1019.5 |
| 20260502034941 | 36 | 64 | 0.0 | 0.0 | 0.00 | 0.02 | 0.01 | 78 | 1019.5 |
| 20260502034425 | 36 | 64 | 0.0 | 0.0 | 0.00 | 0.02 | 0.01 | 78 | 1019.4 |
| 20260502033934 | 37 | 64 | 0.0 | 0.0 | 0.00 | 0.02 | 0.01 | 77 | 1019.4 |
| 20260502033422 | 37 | 64 | 0.0 | 0.0 | 0.00 | 0.02 | 0.01 | 77 | 1019.4 |
| 20260502032933 | 37 | 64 | 0.0 | 0.0 | 0.00 | 0.02 | 0.01 | 77 | 1019.3 |
| 20260502032441 | 37 | 64 | 0.0 | 0.0 | 0.00 | 0.02 | 0.01 | 76 | 1019.4 |
| 20260502031948 | 37 | 64 | 0.0 | 0.0 | 0.00 | 0.02 | 0.01 | 76 | 1019.4 |
| 20260502031415 | 37 | 64 | 0.0 | 0.0 | 0.00 | 0.02 | 0.01 | 75 | 1019.3 |
| 20260502030923 | 38 | 64 | 0.0 | 0.0 | 0.00 | 0.02 | 0.01 | 75 | 1019.3 |
| 20260502030431 | 38 | 64 | 0.0 | 0.0 | 0.00 | 0.02 | 0.01 | 75 | 1019.1 |
| 20260502025924 | 38 | 64 | 0.0 | 0.0 | 0.00 | 0.02 | 0.01 | 74 | 1019.2 |
| 20260502025431 | 38 | 64 | 0.0 | 0.0 | 0.00 | 0.16 | 0.01 | 74 | 1019.1 |
| 20260502024919 | 38 | 64 | 0.0 | 0.0 | 0.00 | 0.16 | 0.01 | 74 | 1019.2 |
| 20260502024427 | 38 | 64 | 0.0 | 0.0 | 0.00 | 0.16 | 0.01 | 74 | 1019.2 |
| 20260502023916 | 38 | 64 | 0.0 | 0.0 | 0.00 | 0.16 | 0.01 | 73 | 1019.1 |
| 20260502023453 | 38 | 64 | 0.0 | 1.0 | 0.00 | 0.16 | 0.01 | 73 | 1019.1 |
| 20260502022921 | 38 | 64 | 0.0 | 2.0 | 0.00 | 0.16 | 0.01 | 73 | 1018.9 |
| 20260502022426 | 39 | 64 | 0.0 | 3.0 | 0.00 | 0.16 | 0.01 | 73 | 1018.9 |
| 20260502021915 | 39 | 49 | 0.0 | 2.0 | 0.00 | 0.16 | 0.01 | 72 | 1018.8 |
| 20260502021427 | 39 | 49 | 1.0 | 3.0 | 0.00 | 0.16 | 0.01 | 72 | 1018.8 |
| 20260502020937 | 39 | 50 | 1.0 | 3.0 | 0.00 | 0.16 | 0.01 | 72 | 1018.8 |
| 20260502020453 | 39 | 44 | 2.0 | 3.0 | 0.00 | 0.16 | 0.01 | 71 | 1018.7 |
| 20260502015920 | 39 | 59 | 0.0 | 3.0 | 0.00 | 0.16 | 0.01 | 71 | 1018.7 |
| 20260502015423 | 39 | 58 | 1.0 | 3.0 | 0.00 | 0.21 | 0.01 | 70 | 1018.6 |
| 20260502014932 | 40 | 59 | 1.0 | 3.0 | 0.00 | 0.21 | 0.01 | 70 | 1018.6 |
| 20260502014445 | 40 | 49 | 1.0 | 2.0 | 0.00 | 0.21 | 0.01 | 70 | 1018.6 |
| 20260502013931 | 40 | 45 | 0.0 | 3.0 | 0.00 | 0.21 | 0.01 | 71 | 1018.5 |
| 20260502013421 | 40 | 325 | 1.0 | 3.0 | 0.00 | 0.21 | 0.01 | 71 | 1018.5 |
| 20260502012933 | 40 | 355 | 1.0 | 3.0 | 0.00 | 0.21 | 0.01 | 71 | 1018.4 |
| 20260502012418 | 40 | 34 | 0.0 | 3.0 | 0.00 | 0.21 | 0.01 | 71 | 1018.2 |
| 20260502011926 | 41 | 35 | 0.0 | 4.0 | 0.00 | 0.21 | 0.01 | 71 | 1018.1 |
| 20260502011416 | 41 | 12 | 1.0 | 5.0 | 0.00 | 0.21 | 0.01 | 71 | 1018.0 |
| 20260502010954 | 41 | 15 | 1.0 | 5.0 | 0.00 | 0.21 | 0.01 | 71 | 1017.9 |
| 20260502010421 | 41 | 11 | 2.0 | 5.0 | 0.00 | 0.21 | 0.01 | 71 | 1017.9 |
| 20260502005928 | 42 | 11 | 1.0 | 5.0 | 0.00 | 0.21 | 0.01 | 71 | 1017.9 |
| 20260502005416 | 42 | 11 | 1.0 | 5.0 | 0.00 | 0.24 | 0.01 | 71 | 1017.9 |
| 20260502004949 | 42 | 12 | 1.0 | 5.0 | 0.00 | 0.24 | 0.01 | 71 | 1017.8 |
| 20260502004420 | 42 | 13 | 2.0 | 4.0 | 0.00 | 0.24 | 0.01 | 70 | 1017.9 |
| 20260502003930 | 43 | 17 | 2.0 | 5.0 | 0.00 | 0.24 | 0.01 | 70 | 1017.8 |
| 20260502003417 | 43 | 20 | 3.0 | 6.0 | 0.00 | 0.24 | 0.01 | 69 | 1017.7 |
| 20260502002928 | 43 | 10 | 3.0 | 6.0 | 0.00 | 0.24 | 0.01 | 69 | 1017.7 |
| 20260502002415 | 44 | 11 | 2.0 | 4.0 | 0.00 | 0.24 | 0.01 | 69 | 1017.6 |
| 20260502001926 | 44 | 15 | 2.0 | 4.0 | 0.00 | 0.24 | 0.01 | 70 | 1017.6 |
| 20260502001416 | 45 | 11 | 1.0 | 2.0 | 0.00 | 0.24 | 0.01 | 71 | 1017.4 |
| 20260502000923 | 45 | 13 | 0.0 | 5.0 | 0.00 | 0.24 | 0.01 | 70 | 1017.4 |
| 20260502000431 | 45 | 11 | 2.0 | 5.0 | 0.00 | 0.24 | 0.01 | 70 | 1017.4 |
| 20260501235921 | 45 | 11 | 1.0 | 4.0 | 0.00 | 0.24 | 0.01 | 70 | 1017.3 |
| 20260501235430 | 45 | 11 | 0.0 | 4.0 | 0.00 | 0.30 | 0.01 | 70 | 1017.3 |
| 20260501234917 | 45 | 16 | 2.0 | 4.0 | 0.00 | 0.30 | 0.01 | 70 | 1017.4 |
| 20260501234425 | 45 | 15 | 1.0 | 3.0 | 0.00 | 0.30 | 0.01 | 70 | 1017.4 |
| 20260501233934 | 46 | 14 | 0.0 | 4.0 | 0.00 | 0.30 | 0.01 | 70 | 1017.4 |
| 20260501233422 | 46 | 10 | 1.0 | 4.0 | 0.00 | 0.30 | 0.01 | 71 | 1017.4 |
| 20260501232931 | 46 | 15 | 0.0 | 4.0 | 0.00 | 0.30 | 0.01 | 70 | 1017.4 |
| 20260501232417 | 46 | 12 | 1.0 | 3.0 | 0.00 | 0.30 | 0.01 | 70 | 1017.2 |
| 20260501231925 | 46 | 9 | 1.0 | 3.0 | 0.00 | 0.30 | 0.01 | 70 | 1017.2 |
| 20260501231436 | 46 | 14 | 1.0 | 4.0 | 0.00 | 0.30 | 0.01 | 70 | 1017.3 |
| 20260501230945 | 46 | 13 | 1.0 | 4.0 | 0.00 | 0.30 | 0.01 | 70 | 1017.3 |
| 20260501230432 | 46 | 12 | 1.0 | 3.0 | 0.00 | 0.30 | 0.01 | 70 | 1017.3 |
| 20260501225924 | 46 | 12 | 1.0 | 5.0 | 0.00 | 0.30 | 0.01 | 70 | 1017.4 |
| 20260501225432 | 46 | 9 | 1.0 | 5.0 | 0.00 | 0.35 | 0.01 | 69 | 1017.4 |
| 20260501224920 | 47 | 11 | 1.0 | 5.0 | 0.00 | 0.35 | 0.01 | 69 | 1017.4 |
| 20260501224448 | 47 | 11 | 1.0 | 3.0 | 0.00 | 0.35 | 0.01 | 68 | 1017.4 |
| 20260501223936 | 47 | 11 | 2.0 | 4.0 | 0.00 | 0.35 | 0.01 | 68 | 1017.3 |
| 20260501223442 | 47 | 12 | 1.0 | 4.0 | 0.00 | 0.35 | 0.01 | 67 | 1017.3 |
| 20260501222925 | 47 | 9 | 1.0 | 3.0 | 0.00 | 0.35 | 0.01 | 67 | 1017.3 |
| 20260501222433 | 47 | 9 | 1.0 | 5.0 | 0.00 | 0.35 | 0.01 | 67 | 1017.2 |
| 20260501221922 | 47 | 19 | 2.0 | 5.0 | 0.00 | 0.35 | 0.01 | 67 | 1017.3 |
| 20260501221417 | 47 | 10 | 0.0 | 3.0 | 0.00 | 0.35 | 0.01 | 67 | 1017.3 |
| 20260501220925 | 47 | 9 | 1.0 | 2.0 | 0.00 | 0.35 | 0.01 | 68 | 1017.3 |
| 20260501220430 | 47 | 9 | 0.0 | 3.0 | 0.00 | 0.35 | 0.01 | 67 | 1017.2 |
| 20260501215430 | 47 | 11 | 0.0 | 5.0 | 0.00 | 0.40 | 0.01 | 67 | 1017.2 |
| 20260501214940 | 47 | 9 | 1.0 | 5.0 | 0.00 | 0.40 | 0.01 | 67 | 1017.2 |
| 20260501214430 | 47 | 11 | 1.0 | 3.0 | 0.00 | 0.40 | 0.01 | 67 | 1017.2 |
| 20260501213919 | 47 | 11 | 1.0 | 3.0 | 0.00 | 0.40 | 0.01 | 68 | 1017.3 |
| 20260501213423 | 47 | 11 | 1.0 | 3.0 | 0.00 | 0.40 | 0.01 | 70 | 1017.4 |
| 20260501212953 | 47 | 11 | 0.0 | 5.0 | 0.00 | 0.40 | 0.01 | 70 | 1017.3 |
| 20260501212438 | 47 | 11 | 1.0 | 5.0 | 0.00 | 0.40 | 0.01 | 69 | 1017.2 |
| 20260501211927 | 47 | 10 | 1.0 | 4.0 | 0.00 | 0.40 | 0.01 | 69 | 1017.2 |
| 20260501211454 | 47 | 9 | 0.0 | 4.0 | 0.00 | 0.40 | 0.01 | 68 | 1017.2 |
| 20260501210919 | 47 | 5 | 1.0 | 6.0 | 0.00 | 0.40 | 0.01 | 67 | 1017.1 |
| 20260501210426 | 47 | 19 | 2.0 | 6.0 | 0.00 | 0.40 | 0.01 | 66 | 1017.1 |
| 20260501205935 | 47 | 10 | 1.0 | 3.0 | 0.00 | 0.40 | 0.01 | 67 | 1017.1 |
| 20260501205425 | 47 | 9 | 1.0 | 3.0 | 0.00 | 0.40 | 0.01 | 68 | 1017.1 |
| 20260501204933 | 47 | 9 | 1.0 | 5.0 | 0.00 | 0.40 | 0.01 | 68 | 1017.1 |
| 20260501204442 | 47 | 11 | 3.0 | 5.0 | 0.00 | 0.40 | 0.01 | 67 | 1017.2 |
| 20260501203927 | 47 | 9 | 2.0 | 5.0 | 0.00 | 0.40 | 0.01 | 66 | 1017.0 |
| 20260501203416 | 47 | 9 | 1.0 | 4.0 | 0.00 | 0.40 | 0.01 | 67 | 1017.1 |